Regional Weather Roundup
Issued by NWS

Home | Current Version | Previous Version | Graphics & Text | Print | Product List | Glossary On
Versions: 1 2 3 4 5 6 7 8 9 10 11 12 13 14 15 16 17 18 19 20 21 22 23 24 25 26 27 28 29 30 31 32 33 34 35 36 37 38 39 40 41 42 43 44 45 46 47 48 49 50
000
ASUS43 KDTX 312210
RWRMI
MICHIGAN HOURLY REGIONAL WEATHER ROUNDUP
NATIONAL WEATHER SERVICE DETROIT/PONTIAC MI
600 PM EDT MON AUG 31 2015

NOTE: "FAIR" INDICATES FEW OR NO CLOUDS BELOW 12,000 FEET WITH NO
SIGNIFICANT WEATHER AND/OR OBSTRUCTION TO VISIBILITY.

MIZ047>049-052>055-059>063-066>070-074>076-081>083-312300-
SOUTHEAST LOWER MICHIGAN

CITY           SKY/WX    TMP DP  RH WIND       PRES   REMARKS
ADRIAN         SUNNY     85  63  47 W8        30.05S
ALMA           SUNNY     78  68  71 SW5       30.05S
ANN ARBOR      SUNNY     83  67  58 NW6       30.04S
BAD AXE        SUNNY     77  65  66 W5        30.04S
CARO           SUNNY     77  68  72 S6        30.04S
DETROIT CITY   SUNNY     85  64  49 NW5       30.03S
DETROIT        MOSUNNY   84  67  56 VRB7      30.04S
FLINT          SUNNY     82  65  56 SW5       30.05S
GROSSE ILE     SUNNY     81  72  74 SE3       30.03R
HILLSDALE      SUNNY     83  65  53 W7        30.06S
HOWELL         SUNNY     81  64  55 W5        30.05S

CITY           SKY/WX    TMP DP  RH WIND       PRES   REMARKS
JACKSON        SUNNY     81  69  67 W5        30.05S
LAMBERTVILLE   SUNNY     87  66  50 W6        30.04S
LANSING        SUNNY     80  66  62 W7        30.05S
LAPEER         FAIR      79  64  60 W7        30.05S
MASON          SUNNY     81  65  58 CALM      30.06R
MONROE         SUNNY     86  67  53 W6        30.03R
MT. CLEMENS    SUNNY     77  67  71 E6        30.02F
PONTIAC        SUNNY     81  65  58 SW7       30.04F
PORT HOPE        N/A     70  67  90 E8        30.02S
PORT HURON     SUNNY     79  66  65 CALM      30.04S
TRI CITIES     SUNNY     78  66  66 SW9       30.04F
MIDLAND        FAIR      79  66  63 S7        30.02F
TROY           SUNNY     84  63  48 W6        30.06S
SAGINAW HB     SUNNY     77  66  69 SW5       30.04S
$$
MIZ043>046-050>051-056>058-064>065-071>073-077>080-312300-
SOUTHWEST LOWER MICHIGAN

CITY           SKY/WX    TMP DP  RH WIND       PRES   REMARKS
BATTLE CREEK   SUNNY     82  67  60 W9        30.06S
BENTON HARBOR  SUNNY     77  65  66 VRB3      30.04S
BIG RAPIDS     SUNNY     77  67  71 CALM      30.04S
COLDWATER      SUNNY     83  67  58 W6        30.04F
FREMONT        FAIR      77  66  70 SW6       30.04S
HOLLAND        SUNNY     78  66  66 SW7       30.05F
GRAND RAPIDS   MOSUNNY   81  67  62 W8        30.04F
IONIA          FAIR      80  66  61 W6        30.04S
KALAMAZOO      MOSUNNY   82  67  60 SW8       30.05S
LUDINGTON      SUNNY     76  69  78 CALM      30.04S
MARSHALL       SUNNY     82  68  62 W8        30.05S
MOUNT PLEASANT SUNNY     80  65  59 SW7       30.03S
MUSKEGON       PTSUNNY   75  65  70 S7        30.05S
SOUTH HAVEN    SUNNY     76  65  67 W3        30.05S
$$
MIZ016>042-312300-
NORTHERN LOWER MICHIGAN

CITY           SKY/WX    TMP DP  RH WIND       PRES   REMARKS
ALPENA         SUNNY     73  65  75 E9        30.01F
BEAVER ISLAND  MOSUNNY   71  66  82 SW8       30.00R
BELLAIRE       SUNNY     82  64  55 S5        29.99F
CADILLAC       SUNNY     77  65  68 S7        30.04S
CHARLEVOIX     SUNNY     74  67  78 W10       30.03S
FRANKFORT      SUNNY     72  66  83 SW7G17    30.01F
GAYLORD        SUNNY     81  62  52 W8        30.03S
GRAYLING       SUNNY     82  62  50 SW3       30.03S
HARBOR SPRINGS SUNNY     73  66  79 SW5       30.00S
HOUGHTON LAKE  SUNNY     81  59  47 SW7       30.03F
MANISTEE       SUNNY     75  63  64 SW6       30.03S
OSCODA         SUNNY     81  67  63 S9        29.99S
PELLSTON       SUNNY     78  67  68 W7        30.00S
ROGERS CITY    SUNNY     71  65  82 E7        30.02S
TRAVERSE CITY  SUNNY     83  67  58 VRB5      29.98F
$$
MIZ007>008-015-312300-
EASTERN UPPER MICHIGAN

CITY           SKY/WX    TMP DP  RH WIND       PRES   REMARKS
KINROSS        SUNNY     75  64  69 SW9       29.99S
MACKINAC ISLAN SUNNY     71  65  81 W8        30.00S
NEWBERRY       MOSUNNY   69  64  83 S13       29.98S
S. S. MARIE    SUNNY     76  64  66 S8        29.98S
MUNISING         N/A     81  65  58 S9G18     29.91S
$$
MIZ004>006-011>014-085-312300-
CENTRAL UPPER MICHIGAN

CITY           SKY/WX    TMP DP  RH WIND       PRES   REMARKS
MANISTIQUE     PTSUNNY   67  64  89 S10G17    29.97F FOG
ESCANABA       SUNNY     72  64  78 S13G21    29.94S
MENOMINEE      SUNNY     77  66  69 SW10      29.95F
SAWYER-GWINN   SUNNY     84  64  51 SW5       29.93F
$$
MIZ001>003-009>011-084-312300-
WESTERN UPPER MICHIGAN

CITY           SKY/WX    TMP DP  RH WIND       PRES   REMARKS
IRON MOUNTAIN  SUNNY     84  65  52 S10       29.93F
HOUGHTON       SUNNY     82  66  58 SE5       29.86F
IRONWOOD       SUNNY     79  64  61 SW12G17   29.87R
$$

ABBREVIATIONS USED IN REMARKS
   TC - TEMPERATURE IN CELSIUS
  WCI - WIND CHILL INDEX
   HX - HEAT INDEX
  VSB - VISIBILITY




USA.gov is the U.S. government's official web portal to all federal, state and local government web resources and services.